Temperature
20 21 21 21 18 15 18 19 20 21 23 23 24 24 22 21 21 21 20 21 21 21 21 20 20 20 21 21 21 21 21 20 20 20 20 20 20 20 20 19 19 19 19 19 19 19 19 19 19
20 21 21 20 16 17 18 19 20 22 23 23 23 22 21 20 19 19 20 21 21 21 21 20 20 20 21 21 21 21 21 20 20 20 20 20 20 20 19 19 19 19 19 19 19 19 19 19 18
20 21 21 15 16 17 20 20 21 22 23 23 22 21 20 19 19 19 20 20 20 21 20 20 20 20 20 21 21 21 20 20 20 20 20 20 20 19 19 19 19 19 19 19 19 18 18 18 18
20 21 19 15 18 17 18 20 21 21 22 22 21 20 19 18 19 20 20 20 20 20 20 20 20 20 20 20 20 20 20 20 20 20 20 20 19 19 19 19 19 19 19 18 18 18 18 18 18
20 20 16 16 18 18 18 20 21 21 21 21 20 19 18 18 19 20 20 20 20 20 20 20 20 20 20 20 20 20 20 20 20 20 19 19 19 19 19 19 19 19 18 18 18 18 18 18 18
21 16 15 16 18 19 19 21 21 20 20 20 19 18 17 17 19 19 20 20 20 20 20 20 20 20 20 20 20 20 20 20 20 19 19 19 19 19 19 19 19 18 18 18 18 18 18 18 17
19 14 16 18 18 19 21 20 20 19 19 19 19 18 17 17 18 19 19 19 19 19 19 20 19 20 19 19 19 19 19 19 19 19 19 19 19 19 19 19 18 18 18 18 18 18 18 17 17
20 15 18 17 19 20 20 20 19 19 18 19 19 18 17 17 18 18 19 19 19 19 19 19 19 19 19 19 19 19 19 19 19 19 19 19 19 19 19 18 18 18 18 18 18 18 18 17 17
20 15 16 18 19 20 19 18 18 18 18 17 18 18 18 17 17 18 18 19 19 19 19 19 19 19 19 19 19 19 19 19 19 19 19 19 19 19 18 18 18 18 18 18 18 18 18 17 17
19 15 18 19 19 19 19 18 18 18 17 17 17 17 17 17 18 18 18 19 19 19 19 19 19 19 19 19 19 19 18 18 18 18 18 18 18 18 18 18 18 18 18 18 18 18 18 17 17
18 17 18 19 20 20 18 18 18 18 17 17 16 16 17 17 18 18 18 18 18 19 19 19 19 18 18 18 18 18 18 18 18 18 18 18 18 18 18 18 18 18 18 18 18 18 18 17 17
18 18 20 20 20 19 18 18 17 17 17 17 17 17 17 17 18 18 18 18 18 19 19 18 18 18 18 18 18 18 18 18 18 18 18 18 18 18 18 18 18 18 18 18 17 17 17 17 17
19 19 20 19 19 18 17 16 16 16 16 16 16 16 17 17 17 18 18 18 18 18 18 18 18 18 18 18 18 18 18 18 18 18 18 18 18 18 18 18 17 17 17 17 17 17 17 17 17
19 19 19 18 18 18 16 16 16 15 15 16 15 16 16 16 17 17 18 18 18 18 18 18 18 18 18 18 18 18 18 18 18 18 18 17 17 17 17 17 17 17 17 17 17 17 17 17 17
19 18 18 18 18 17 17 16 15 15 15 15 15 15 15 16 16 17 17 17 17 18 18 18 18 17 18 17 17 17 18 17 17 17 17 17 17 17 17 17 17 17 17 17 17 17 16 16 16
19 18 18 18 17 17 17 16 15 15 15 15 15 15 15 15 15 16 16 16 17 17 17 17 17 17 17 17 17 17 17 17 17 17 17 17 17 17 17 17 17 17 16 16 16 16 16 16 16
17 18 19 19 18 17 17 16 15 15 15 14 14 14 14 14 15 15 15 16 16 16 16 16 16 16 17 17 17 17 17 17 17 17 17 17 16 16 16 17 17 16 16 16 16 16 16 16 16
19 19 19 18 18 17 16 15 15 15 15 14 14 14 14 14 14 15 15 15 15 15 15 15 16 16 16 16 16 16 16 16 16 16 16 16 16 16 16 16 16 16 16 16 16 16 16 16 16
19 19 19 18 17 16 15 15 15 15 15 14 14 14 14 14 14 14 14 15 15 15 15 15 15 15 15 15 16 16 16 16 16 16 16 16 16 16 16 16 16 15 15 16 15 15 15 15 15
19 19 18 17 17 16 15 15 15 15 15 14 14 14 14 14 14 14 14 14 14 14 14 14 14 15 15 15 15 15 15 15 15 15 15 15 15 15 15 15 15 15 15 15 15 15 15 15 15
19 19 18 17 16 16 16 15 15 15 15 15 14 14 14 13 13 13 13 13 13 14 14 14 14 14 14 15 15 15 15 15 15 15 15 15 14 14 15 15 15 15 15 15 15 15 14 14 14
19 19 19 18 16 15 16 15 15 15 14 14 14 14 14 13 13 13 13 13 13 13 13 13 13 14 14 14 14 14 14 14 14 14 14 14 14 14 14 14 14 14 14 14 14 14 14 14 14
19 18 18 17 15 15 15 15 15 15 15 14 14 14 13 13 13 13 13 13 13 12 13 13 13 13 13 13 14 13 13 13 13 13 13 13 13 13 13 13 14 14 14 14 14 14 14 14 14
18 17 16 14 14 15 15 15 15 14 15 14 14 13 13 13 13 13 12 12 12 12 12 12 13 13 12 12 13 13 13 13 12 12 12 12 12 13 13 13 13 13 13 13 13 13 13 13 13
18 17 16 16 15 15 15 15 15 15 15 15 14 13 13 13 12 12 12 12 12 12 12 12 12 12 12 12 12 12 12 12 12 12 12 12 12 12 12 12 12 12 13 13 13 13 13 13 13
18 17 16 16 16 14 15 15 15 14 14 15 14 13 12 12 12 12 12 12 11 11 11 11 11 11 11 11 11 11 10 10 10 10 11 11 11 11 11 11 11 12 12 12 12 12 12 12 12
18 15 15 14 14 14 14 15 14 13 13 13 12 12 11 12 12 12 11 11 11 11 11 10 11 11 10 10 10 10 10 10 10 10 10 10 10 10 10 11 11 11 11 11 11 12 12 12 12
17 14 13 14 15 15 15 15 14 14 13 12 12 11 11 11 11 11 11 11 10 10 10 10 10 10 10 9 9 9 9 9 9 9 9 9 9 9 10 10 10 10 11 11 11 11 11 11 11
17 16 13 12 14 14 15 15 15 14 13 12 11 11 11 11 11 11 10 10 10 10 10 10 9 9 9 9 9 9 8 8 8 8 9 9 9 9 9 9 9 10 10 10 10 10 10 10 11
17 16 14 15 14 13 14 14 14 13 13 12 11 11 11 11 10 10 10 10 9 9 9 9 9 9 8 8 8 8 8 8 8 8 8 8 8 8 9 9 9 9 9 9 9 9 10 10 10
Wind_Speed
6 4 2 4 6 5 3 5 4 5 3 2 4 5 7 4 2 2 3 11 16 16 17 21 21 21 21 21 21 22 22 22 23 23 23 22 21 20 18 17 16 15 14 14 14 14 15 15 16
2 1 4 5 5 1 5 5 4 3 2 2 5 6 7 6 5 4 4 10 16 15 16 18 21 21 22 22 22 21 22 22 22 21 21 20 20 19 17 17 16 15 14 14 14 14 14 15 15
1 3 5 5 4 5 4 4 3 3 4 3 4 6 5 4 3 3 6 13 14 13 15 18 20 20 21 21 21 21 21 21 21 20 20 19 18 17 16 16 15 14 14 13 13 13 14 14 14
3 5 5 5 2 5 5 6 4 2 5 6 5 6 5 6 3 6 13 14 14 11 14 17 19 19 20 20 21 20 20 20 19 19 19 18 17 16 15 14 14 13 13 13 13 13 12 12 12
4 5 5 3 4 5 5 5 3 1 2 5 6 6 4 6 9 13 14 14 13 10 11 16 17 18 18 19 19 19 19 18 18 17 17 16 15 15 14 13 12 12 11 11 11 11 11 11 11
5 5 5 1 5 5 4 3 1 3 4 4 5 5 4 5 9 12 14 13 11 11 11 13 16 16 16 17 17 17 17 17 16 16 15 14 14 13 12 12 11 11 10 10 10 9 9 9 8
5 5 4 3 4 4 3 3 3 3 4 3 4 6 4 5 7 10 12 13 11 10 9 9 11 13 14 14 15 16 15 15 15 15 14 13 13 12 11 10 10 10 9 9 9 8 8 8 7
6 5 3 1 2 3 4 4 4 4 3 3 3 7 6 5 8 10 11 12 11 8 7 7 8 9 10 11 13 14 14 14 14 13 13 12 11 11 10 9 9 9 9 8 7 7 7 6 5
5 5 1 4 3 2 3 4 4 4 5 5 5 5 9 12 11 11 11 9 9 8 7 6 6 7 7 8 10 11 11 11 12 11 11 10 9 8 8 8 8 8 8 7 7 6 6 5 4
5 3 5 5 3 2 2 3 2 4 7 7 9 12 14 12 11 11 10 9 7 7 6 5 5 5 5 5 6 7 7 8 8 8 8 8 8 7 6 7 7 7 7 7 6 6 5 4 3
5 6 5 3 2 3 3 3 3 6 5 5 12 15 12 11 10 9 8 7 7 5 5 5 4 4 4 3 4 5 5 5 6 7 7 7 6 5 5 4 5 5 6 5 5 5 4 4 3
3 5 4 1 2 4 4 4 5 6 5 8 11 12 11 10 9 8 7 7 6 6 5 4 4 3 3 3 3 4 3 3 3 5 6 5 4 4 4 4 4 5 5 5 4 4 4 4 4
4 3 1 3 7 8 9 8 7 8 10 12 11 10 10 8 7 5 5 5 5 5 6 4 4 4 3 2 1 2 2 3 3 3 5 6 4 3 3 3 4 5 6 5 4 4 4 4 4
3 1 2 4 7 5 10 7 6 6 10 11 10 8 7 6 5 5 5 5 4 5 5 5 5 4 3 2 1 1 1 2 3 3 4 6 5 4 4 3 4 4 5 5 5 5 4 3 3
1 3 5 4 4 4 8 8 4 7 10 10 8 7 6 5 5 5 5 4 5 5 6 6 4 5 4 2 1 2 1 2 1 1 2 4 5 5 4 3 3 4 5 5 4 3 2 2 2
4 5 3 1 3 3 7 5 4 7 9 9 8 6 5 5 5 5 6 6 6 6 6 6 5 6 5 3 2 2 3 2 1 1 1 2 3 4 4 3 3 5 4 4 3 3 2 3 2
6 4 2 1 2 4 5 6 7 8 9 8 7 5 5 5 5 6 6 7 7 7 6 6 7 7 5 4 3 2 3 2 2 2 1 1 2 3 3 2 3 4 3 2 3 3 3 3 3
2 3 2 2 1 5 5 6 8 8 8 8 7 6 5 4 4 5 6 7 7 6 6 7 7 8 6 4 2 2 3 3 3 3 3 3 1 1 1 1 2 2 2 2 2 3 2 2 2
4 4 2 1 2 5 7 8 8 8 7 8 7 6 5 4 4 6 6 7 7 7 7 7 7 7 5 3 2 2 2 2 3 4 5 6 5 4 2 1 1 0 1 2 3 2 2 2 2
3 3 3 3 4 5 8 6 4 5 6 8 9 8 7 6 5 5 6 6 7 7 7 7 7 7 6 3 2 1 1 2 3 4 6 7 7 6 4 2 1 1 1 1 2 2 2 2 3
3 5 6 6 6 7 7 3 2 2 3 5 7 7 7 7 6 5 5 6 6 7 7 6 7 7 7 6 3 2 3 3 3 4 4 7 7 6 5 4 2 2 1 1 2 2 3 3 3
2 3 7 8 6 2 3 4 4 5 5 7 8 8 8 7 7 5 5 5 6 6 6 6 7 8 8 7 6 5 4 3 3 3 3 5 8 7 6 5 3 2 1 1 2 2 2 3 4
3 4 6 6 6 4 3 4 4 4 7 9 9 9 9 8 8 6 5 5 5 5 5 6 7 8 8 8 8 6 6 4 3 4 5 5 6 8 8 7 5 3 2 2 2 2 2 3 4
6 7 8 6 5 2 1 3 5 6 8 7 9 10 10 10 9 7 6 6 6 5 6 6 8 9 8 9 8 8 8 6 6 6 5 5 4 5 8 8 6 4 3 2 2 2 2 3 3
6 6 4 4 4 3 1 2 6 5 4 7 10 11 11 10 9 8 7 6 5 5 6 6 8 8 8 8 9 8 7 7 6 5 5 5 5 5 6 6 5 4 4 4 3 2 2 2 3
2 7 7 5 5 3 1 3 5 1 1 4 8 11 12 11 9 8 7 6 5 5 5 5 6 6 7 8 7 7 6 5 4 5 4 5 4 4 5 6 6 6 5 5 4 2 2 2 2
5 3 4 7 3 1 3 4 3 2 4 7 10 11 12 11 9 8 7 5 5 4 4 4 5 6 6 6 6 6 6 6 5 5 5 4 4 4 6 6 6 6 6 5 4 3 3 3 2
5 7 5 5 5 2 3 3 4 4 5 8 10 11 10 10 9 8 6 5 4 4 4 5 5 5 5 5 5 5 5 5 5 5 6 6 6 6 6 6 6 6 6 6 5 4 4 3 3
3 4 6 5 5 5 3 5 3 7 9 11 11 11 12 12 10 8 6 5 4 4 4 4 4 4 5 5 5 6 6 6 6 6 6 6 6 6 7 6 6 6 7 6 6 5 5 5 4
3 4 5 4 2 3 4 5 4 2 6 8 10 9 10 10 9 8 7 6 5 4 4 4 4 4 4 4 5 5 5 6 6 6 6 6 6 6 6 6 7 7 7 7 6 7 7 6 6
Wind_Direction
323 337 69 61 56 50 264 256 250 295 314 355 81 110 118 106 129 138 57 122 127 136 141 142 141 136 130 126 122 120 120 121 123 125 128 130 131 131 131 130 128 126 123 121 119 119 119 120 121
330 35 58 62 88 64 274 254 255 277 292 26 50 66 73 58 44 74 87 120 128 132 136 140 141 137 133 130 127 125 125 125 126 127 129 131 132 132 132 131 130 128 126 125 125 124 125 125 127
335 55 81 78 118 183 246 245 240 331 21 50 70 54 58 40 31 66 109 120 120 125 132 141 140 138 135 133 132 131 131 130 130 130 132 133 134 134 134 133 131 130 128 128 128 129 129 130 131
82 52 57 77 199 226 234 264 280 303 25 36 83 72 63 14 20 102 114 116 115 118 129 140 141 139 138 137 137 136 136 135 134 134 135 135 135 135 135 135 134 133 131 130 130 131 133 134 134
59 78 66 38 270 260 255 279 276 99 56 56 75 85 52 19 78 104 111 114 118 118 126 138 139 139 140 140 140 141 140 139 138 138 138 138 137 137 138 138 138 137 136 134 134 134 135 136 137
57 69 85 290 282 281 283 303 12 88 99 77 82 89 61 52 91 103 106 107 115 119 118 132 139 142 145 145 146 146 145 144 143 143 143 142 142 142 143 143 143 143 142 142 141 140 139 138 138
101 95 140 202 285 312 339 8 32 78 82 65 109 101 95 77 94 103 105 107 106 109 113 118 135 142 146 149 151 151 150 150 149 149 150 151 151 151 152 153 152 152 152 152 152 150 147 145 144
118 101 107 237 258 302 336 18 26 48 77 36 75 123 136 128 112 104 101 104 104 100 97 101 112 128 142 153 157 157 157 159 159 159 160 160 161 162 163 163 164 166 166 166 166 162 159 158 157
88 76 164 226 203 273 3 44 39 43 75 54 48 85 117 120 116 108 102 96 100 98 86 86 89 97 125 145 155 159 162 166 167 168 170 167 169 171 174 177 179 181 181 181 182 179 174 170 167
88 129 225 224 193 159 38 62 92 76 69 81 88 95 111 115 115 117 119 115 107 100 93 86 90 98 111 129 136 144 156 166 170 172 175 173 174 179 183 192 196 197 197 196 196 199 195 182 176
139 186 235 246 199 140 101 56 47 108 86 131 135 131 126 121 118 116 110 107 104 105 95 89 93 95 95 103 128 138 147 157 170 179 180 177 176 182 188 196 212 215 211 206 205 205 200 189 189
170 237 229 261 108 97 92 83 58 54 98 114 123 129 126 125 120 117 116 112 107 97 88 75 82 86 87 100 121 137 147 161 178 189 186 179 177 186 198 204 215 216 212 204 202 200 209 211 213
205 277 312 94 82 88 87 75 86 74 95 103 112 117 121 119 114 105 99 92 96 87 64 57 68 73 68 78 109 136 154 174 185 193 198 193 189 199 208 218 221 221 215 207 204 207 209 218 230
213 169 47 75 85 79 96 74 76 102 111 110 113 115 114 113 111 100 87 76 66 55 43 41 56 52 53 57 68 86 136 169 174 189 200 202 203 206 208 216 222 224 220 215 214 212 208 218 223
123 80 45 41 79 117 99 59 74 129 125 118 114 112 104 89 90 82 73 66 56 43 34 28 44 45 47 46 60 70 91 118 123 184 191 194 202 207 207 212 222 227 222 216 221 223 209 224 222
68 70 68 347 89 112 100 119 135 140 134 128 127 124 107 86 77 65 54 51 42 42 39 28 30 38 38 33 40 57 74 85 89 115 151 196 214 217 212 217 228 231 216 205 209 208 209 218 210
43 87 103 64 59 102 110 145 158 152 146 141 137 131 117 99 75 63 59 59 51 46 43 35 30 28 28 27 34 45 69 75 64 49 36 260 230 228 215 229 239 228 212 212 221 203 196 205 208
130 118 124 158 147 106 112 135 150 153 152 148 144 140 136 118 90 76 65 63 60 51 44 38 32 23 15 22 22 28 43 47 48 40 23 17 9 310 217 235 260 229 209 219 214 208 194 188 184
152 140 136 157 151 113 125 137 158 154 151 155 158 157 152 131 98 79 68 61 56 46 41 37 35 20 18 21 12 15 24 27 39 41 35 32 26 19 22 3 358 317 236 237 216 201 190 177 148
157 135 129 69 77 113 119 119 144 161 170 173 173 171 163 143 117 90 74 64 57 48 39 37 33 26 21 17 8 12 60 57 51 39 34 29 26 18 13 19 9 357 274 250 224 195 185 188 176
193 174 163 138 85 79 111 96 164 174 162 165 172 170 161 155 140 116 83 66 62 53 42 41 32 31 25 17 26 38 55 54 39 28 22 19 17 18 14 18 19 3 308 260 244 220 205 210 207
229 198 149 139 121 125 138 161 222 198 193 188 180 169 158 147 135 124 101 81 68 60 48 42 41 39 30 27 39 47 48 48 33 26 19 15 19 16 14 16 14 7 345 306 282 250 231 217 222
159 101 108 115 113 90 42 131 247 180 209 207 186 172 157 148 140 130 110 94 75 61 55 47 46 42 35 36 40 50 53 47 36 31 27 17 17 18 15 16 12 3 348 331 315 295 256 236 231
121 81 66 57 74 87 235 155 239 210 211 193 178 167 156 148 139 126 110 91 69 52 49 47 49 40 33 37 42 48 49 45 41 29 18 8 5 8 11 11 11 4 350 335 322 307 278 257 251
82 93 55 21 22 241 238 185 244 236 205 191 174 165 157 149 142 135 121 99 80 58 47 46 51 42 33 36 39 43 45 45 42 27 15 10 1 355 355 1 2 359 355 352 345 331 311 276 259
124 131 152 178 199 250 323 234 260 325 101 159 156 152 150 147 145 139 129 116 99 78 61 55 55 49 39 38 35 36 39 41 34 24 14 6 355 342 345 358 6 5 5 3 1 347 325 317 290
117 107 144 126 120 109 274 280 309 92 104 128 143 150 154 152 148 140 129 117 107 93 72 63 62 53 44 42 40 35 33 36 29 19 15 5 355 352 0 7 9 11 13 10 6 3 344 338 326
106 135 98 111 138 206 285 265 241 210 178 159 159 159 154 148 146 137 128 119 107 96 76 63 64 60 49 44 40 40 32 30 26 25 19 11 3 6 8 11 12 14 14 15 17 10 358 359 345
70 79 94 103 141 152 222 264 241 210 188 174 171 163 158 154 152 142 135 128 115 95 83 74 63 59 49 42 41 39 31 27 30 28 16 9 9 11 12 10 14 16 16 15 17 16 13 10 3
107 124 138 139 185 165 175 260 336 181 162 158 158 152 148 148 146 142 140 131 119 105 93 83 67 59 50 45 45 41 35 32 31 23 13 10 12 12 13 14 21 21 20 19 23 23 21 21 13
Height
1501 1502 1504 1506 1511 1524 1524 1515 1508 1503 1498 1497 1496 1498 1501 1506 1511 1517 1512 1512 1517 1520 1524 1527 1530 1534 1537 1539 1542 1544 1546 1548 1550 1552 1554 1556 1558 1560 1562 1564 1565 1567 1568 1569 1570 1570 1571 1572 1572
1500 1502 1505 1506 1519 1531 1524 1511 1506 1501 1498 1497 1497 1500 1503 1507 1509 1511 1512 1515 1519 1522 1526 1529 1532 1535 1538 1541 1543 1545 1548 1550 1552 1554 1556 1558 1560 1561 1563 1565 1567 1568 1569 1570 1571 1572 1572 1573 1574
1500 1502 1505 1509 1522 1527 1516 1505 1502 1499 1498 1497 1500 1502 1506 1510 1511 1512 1514 1517 1521 1525 1528 1531 1534 1537 1540 1542 1544 1547 1549 1551 1553 1555 1557 1559 1561 1563 1565 1566 1568 1569 1570 1571 1572 1573 1574 1574 1575
1501 1503 1506 1515 1518 1515 1509 1502 1499 1498 1498 1499 1501 1506 1510 1514 1513 1514 1516 1520 1524 1527 1530 1533 1536 1539 1542 1544 1546 1548 1550 1552 1555 1557 1558 1560 1562 1564 1566 1568 1569 1570 1571 1572 1573 1574 1575 1575 1576
1501 1503 1512 1521 1516 1509 1504 1500 1497 1498 1500 1502 1503 1509 1514 1515 1515 1516 1519 1522 1526 1529 1533 1536 1538 1541 1543 1545 1547 1549 1552 1554 1556 1558 1560 1562 1564 1565 1567 1568 1570 1571 1572 1573 1574 1575 1575 1576 1577
1502 1504 1521 1523 1515 1506 1502 1499 1498 1499 1502 1504 1506 1511 1517 1518 1517 1519 1521 1524 1527 1531 1534 1537 1540 1542 1545 1547 1549 1551 1553 1555 1557 1559 1561 1563 1564 1566 1568 1569 1570 1572 1573 1574 1575 1575 1576 1577 1578
1502 1510 1518 1516 1514 1507 1502 1500 1500 1501 1503 1505 1507 1512 1517 1519 1520 1520 1522 1525 1529 1532 1535 1538 1540 1543 1546 1548 1550 1552 1554 1556 1558 1560 1562 1563 1565 1566 1568 1569 1570 1572 1573 1574 1575 1576 1577 1577 1578
1502 1508 1513 1515 1512 1507 1502 1501 1503 1503 1504 1506 1509 1512 1517 1519 1521 1522 1525 1528 1531 1533 1536 1538 1541 1543 1545 1548 1550 1553 1555 1557 1559 1560 1562 1564 1565 1566 1568 1569 1570 1571 1572 1573 1575 1576 1577 1577 1578
1502 1513 1518 1511 1509 1506 1503 1503 1505 1506 1506 1507 1509 1512 1516 1519 1522 1524 1526 1529 1531 1533 1536 1538 1541 1543 1546 1548 1551 1553 1555 1557 1559 1561 1562 1563 1565 1566 1567 1569 1570 1571 1572 1573 1574 1575 1576 1577 1577
1502 1515 1510 1504 1503 1503 1503 1504 1506 1508 1508 1511 1513 1515 1518 1521 1523 1525 1527 1528 1531 1533 1536 1538 1540 1543 1546 1548 1550 1552 1554 1556 1558 1560 1562 1563 1564 1566 1567 1568 1569 1570 1571 1572 1573 1574 1575 1576 1577
1501 1506 1502 1501 1501 1501 1503 1506 1507 1508 1512 1513 1514 1516 1519 1522 1524 1525 1527 1529 1531 1533 1536 1538 1540 1542 1544 1547 1549 1551 1554 1556 1558 1559 1561 1563 1564 1565 1566 1567 1568 1569 1570 1571 1572 1573 1574 1574 1575
1502 1500 1500 1500 1500 1502 1504 1507 1510 1511 1514 1515 1517 1518 1520 1523 1525 1527 1528 1530 1531 1533 1535 1538 1539 1542 1543 1546 1548 1551 1553 1555 1557 1558 1560 1561 1563 1564 1565 1566 1567 1568 1569 1570 1570 1571 1572 1573 1574
1501 1499 1499 1500 1500 1503 1505 1509 1512 1516 1516 1517 1519 1521 1523 1525 1527 1529 1530 1531 1532 1534 1536 1537 1539 1541 1543 1545 1548 1550 1552 1554 1556 1557 1559 1560 1561 1562 1564 1565 1566 1566 1567 1568 1569 1570 1571 1571 1572
1498 1499 1500 1501 1501 1505 1508 1513 1515 1520 1520 1521 1522 1524 1526 1528 1529 1530 1531 1533 1534 1536 1537 1538 1539 1541 1543 1545 1547 1549 1551 1553 1554 1556 1557 1559 1560 1561 1562 1563 1564 1564 1565 1566 1567 1568 1569 1569 1570
1498 1501 1502 1503 1503 1508 1509 1518 1520 1522 1523 1524 1526 1527 1529 1530 1531 1532 1532 1534 1535 1536 1537 1538 1539 1541 1542 1544 1546 1548 1550 1552 1553 1554 1555 1557 1558 1559 1560 1560 1561 1562 1563 1564 1564 1565 1566 1567 1568
1498 1505 1510 1507 1506 1509 1514 1526 1524 1524 1525 1526 1528 1529 1531 1532 1533 1534 1534 1535 1536 1537 1537 1538 1539 1540 1542 1543 1545 1547 1548 1550 1551 1552 1553 1554 1555 1556 1557 1558 1559 1560 1560 1561 1562 1562 1563 1564 1565
1508 1512 1512 1510 1508 1509 1515 1523 1524 1525 1527 1528 1529 1531 1532 1534 1535 1535 1536 1536 1537 1537 1537 1538 1539 1540 1541 1542 1543 1545 1547 1548 1549 1550 1551 1552 1553 1553 1554 1555 1555 1556 1557 1558 1558 1559 1560 1560 1561
1511 1511 1511 1513 1510 1512 1517 1522 1523 1526 1528 1529 1531 1532 1533 1535 1536 1536 1536 1537 1537 1538 1538 1538 1539 1539 1541 1541 1542 1544 1545 1546 1546 1547 1548 1549 1550 1551 1551 1552 1552 1553 1554 1554 1555 1555 1556 1557 1558
1503 1507 1511 1512 1510 1514 1519 1522 1524 1526 1528 1530 1531 1533 1534 1535 1536 1536 1537 1537 1538 1537 1537 1538 1538 1539 1540 1540 1541 1542 1543 1543 1544 1545 1545 1546 1547 1548 1548 1549 1549 1550 1551 1552 1552 1552 1553 1553 1554
1502 1507 1511 1513 1511 1515 1522 1525 1525 1526 1527 1528 1530 1531 1533 1534 1535 1536 1537 1537 1538 1537 1537 1538 1538 1538 1539 1539 1540 1541 1541 1542 1542 1543 1543 1544 1544 1545 1545 1546 1546 1546 1547 1548 1549 1549 1549 1549 1550
1501 1505 1508 1513 1515 1517 1522 1529 1528 1527 1528 1528 1530 1531 1533 1534 1535 1537 1538 1538 1538 1538 1537 1537 1537 1537 1538 1538 1539 1539 1540 1540 1541 1541 1541 1542 1542 1542 1542 1542 1543 1543 1544 1544 1545 1545 1545 1546 1547
1502 1497 1500 1507 1518 1528 1524 1537 1530 1527 1527 1527 1528 1530 1532 1534 1536 1537 1538 1539 1539 1539 1538 1538 1537 1537 1538 1538 1538 1539 1539 1539 1539 1540 1540 1540 1540 1540 1540 1540 1540 1540 1541 1541 1541 1541 1541 1542 1542
1497 1496 1500 1507 1517 1527 1528 1534 1532 1526 1526 1524 1526 1528 1531 1533 1535 1537 1538 1539 1539 1539 1539 1538 1538 1537 1538 1538 1538 1538 1538 1539 1539 1539 1539 1539 1539 1538 1538 1537 1537 1537 1537 1537 1537 1537 1537 1537 1538
1494 1500 1508 1516 1522 1535 1531 1534 1532 1525 1519 1520 1523 1526 1529 1532 1534 1537 1539 1539 1539 1540 1539 1539 1538 1538 1538 1538 1538 1538 1538 1538 1538 1537 1537 1537 1536 1536 1535 1535 1535 1534 1534 1533 1533 1533 1533 1533 1534
1496 1510 1527 1530 1539 1537 1529 1531 1528 1516 1515 1516 1519 1523 1527 1530 1533 1536 1538 1539 1540 1540 1540 1540 1539 1539 1539 1539 1538 1538 1538 1538 1537 1537 1536 1536 1535 1534 1534 1533 1532 1532 1531 1530 1529 1529 1529 1529 1529
1500 1507 1527 1536 1539 1538 1530 1531 1522 1515 1514 1514 1517 1521 1526 1529 1532 1535 1537 1539 1540 1541 1541 1541 1540 1540 1540 1539 1539 1539 1538 1538 1537 1537 1536 1535 1534 1533 1532 1531 1530 1529 1528 1527 1526 1526 1525 1525 1525
1501 1509 1511 1526 1532 1538 1534 1526 1518 1515 1515 1516 1518 1521 1524 1528 1532 1535 1537 1539 1540 1541 1542 1542 1541 1541 1540 1540 1540 1540 1539 1538 1537 1536 1535 1534 1533 1532 1531 1530 1529 1528 1527 1526 1524 1523 1522 1522 1521
1498 1506 1516 1525 1535 1538 1531 1528 1524 1516 1516 1516 1518 1521 1524 1528 1532 1534 1537 1539 1541 1542 1542 1542 1542 1542 1542 1541 1541 1540 1539 1539 1538 1537 1536 1534 1533 1532 1531 1529 1528 1527 1525 1524 1523 1521 1520 1519 1518
1502 1507 1516 1525 1526 1536 1538 1531 1512 1511 1512 1514 1517 1520 1523 1527 1531 1534 1537 1539 1541 1542 1542 1543 1543 1543 1543 1542 1541 1541 1540 1539 1538 1537 1536 1535 1534 1532 1531 1529 1527 1526 1525 1523 1522 1521 1519 1518 1516
1499 1504 1512 1521 1526 1529 1533 1529 1510 1509 1511 1514 1517 1521 1524 1528 1531 1534 1537 1539 1541 1542 1543 1543 1544 1544 1543 1543 1542 1542 1541 1540 1539 1538 1537 1536 1534 1533 1531 1529 1528 1526 1525 1524 1522 1521 1519 1517 1516